This demonstration page uses our WeatherBlox Daily Observations layout. Learn more.

Left ArrowRight Arrow

44.8408, -93.29828

Hourly Observations for August 20, 2017

Temp ( °F °C ) Dew Point ( °F °C ) Humidity (%) Winds ( mph kmh ) Pressure ( in mb ) Visibility ( mi km ) Precip ( " mm )
12:53 am 00:53 Clear 69 20.6 62 16.7 78 78 S 8 13 29.88 1012 10 16 0.00 0.00
1:53 am 01:53 Clear 69 20.6 62 16.7 78 78 SSE 5 7 29.87 1012 10 16 0.00 0.00
2:53 am 02:53 Clear 68 20 62 16.7 81 81 S 8 13 29.86 1011 10 16 0.00 0.00
3:53 am 03:53 Clear 66 18.9 61 16.1 84 84 SSE 6 9 29.87 1011 10 16 0.00 0.00
4:53 am 04:53 Mostly Cloudy 67 19.4 61 16.1 81 81 SE 6 9 29.85 1011 10 16 0.00 0.00
5:53 am 05:53 Cloudy 67 19.4 61 16.1 81 81 SE 7 11 29.87 1012 10 16 0.00 0.00
6:53 am 06:53 Cloudy 66 18.9 61 16.1 84 84 SE 7 11 29.87 1012 10 16 0.00 0.00
7:53 am 07:53 Cloudy 67 19.4 62 16.7 84 84 SSE 5 7 29.88 1012 10 16 0.00 0.00
8:53 am 08:53 Mostly Cloudy 71 21.7 63 17.2 76 76 SSW 3 6 29.89 1012 10 16 0.00 0.00
9:53 am 09:53 Mostly Sunny 76 24.4 65 18.3 69 69 WSW 8 13 29.90 1012 10 16 0.00 0.00
10:53 am 10:53 Partly Cloudy 78 25.6 65 18.3 64 64 SW 9 15 29.90 1013 10 16 0.00 0.00
11:53 am 11:53 Partly Cloudy 82 27.8 67 19.4 60 60 W 9 15 29.92 1013 10 16 0.00 0.00
12:53 pm 12:53 Mostly Cloudy 83 28.3 68 20 61 61 W 10 17 29.92 1013 10 16 0.00 0.00
1:53 pm 13:53 Mostly Cloudy 84 28.9 69 20.6 61 61 NW 6 9 29.91 1013 10 16 0.00 0.00
2:53 pm 14:53 Mostly Sunny 84 28.9 68 20 59 59 VRB 3 6 29.91 1013 10 16 0.00 0.00
3:53 pm 15:53 Partly Cloudy 86 30 67 19.4 53 53 WSW 7 11 29.91 1013 10 16 0.00 0.00
4:53 pm 16:53 Partly Cloudy 85 29.4 67 19.4 55 55 W 3 6 29.91 1013 10 16 0.00 0.00
5:53 pm 17:53 Cloudy 82 27.8 67 19.4 60 60 NW 10 17 29.92 1013 10 16 0.00 0.00
6:35 pm 18:35 Mostly Cloudy with Nearby Thunderstorms 81 27.2 66 18.9 61 61 NW 7 11 29.91 1013 10 16 0.00 0.00
6:53 pm 18:53 Mostly Cloudy 81 27.2 66 18.9 61 61 NNW 8 13 29.93 1014 10 16 0.00 0.00
7:53 pm 19:53 Partly Cloudy 79 26.1 65 18.3 62 62 NNW 12 19 29.96 1015 10 16 0.00 0.00
8:53 pm 20:53 Partly Cloudy 75 23.9 65 18.3 71 71 NNW 10 17 29.98 1015 10 16 0.00 0.00
9:53 pm 21:53 Partly Cloudy 74 23.3 64 17.8 71 71 NNW 6 9 29.99 1016 10 16 0.00 0.00
10:53 pm 22:53 Mostly Cloudy 73 22.8 63 17.2 71 71 E 5 7 30.01 1016 10 16 0.00 0.00
11:53 pm 23:53 Mostly Clear 71 21.7 63 17.2 76 76 NNE 5 7 30.01 1016 10 16 0.00 0.00

Powered by AerisWeather